Location: Chefe Valiua
(16.5342°S, 37.2214°E)
Time: 14:46:05
(UTC+00:00)

Envisat - Pass Details

Date: 19 June 2021
Orbit: 764 x 766 km, 98.1° (Epoch: 25 July)

Event Time Altitude Azimuth Distance (km) Brightness Sun altitude
Rises 15:41:21 0° 194° (SSW) 3,247 6.2 -8.4°
Reaches altitude 10° 15:44:24 10° 213° (SSW) 2,314 5.6 -9.1°
Maximum altitude 15:47:39 17° 253° (WSW) 1,855 5.7 -9.8°
Drops below altitude 10° 15:50:54 10° 293° (WNW) 2,301 7.1 -10.6°
Sets 15:53:56 0° 312° (NW) 3,220 7.7 -11.2°
